CZ-2D R/B, 54641

Orbit data source: Space-Track

CZ-2D R/B, 54641 is space debris in SSO originally from a launch on Thu, 08 Dec 2022 UTC launched from the Taiyaun Space Center, China (TSC). Debris objects in space refer to the collection of defunct objects orbiting the Earth. Examples of debris include non-operational satellites, rocket bodies, and fragments generated from explosions, collisions, or faulty payload assembly.

Loading next visibility...
Identifier
54641, 2022-165B
Orbit
SSO
Country
Flag of CNCN / PRC
Related business
Manufacturer
BWYIC
Mission
Spacecraft
Bus & Motor
CZ-2 STAGE 2, Unknown motor
Mass
4,006 kg wet, 4,006 kg dry
Launch date (UTC)
2022-12-08 (4 years ago)
Launch vehicle
Unknown
Launch site
Taiyaun Space Center, China (TSC)
Object type
Payload
Rocket body
Debris
Shape & HBR
Cyl, 4.5 m
Radar Cross Section
27.824 m², Large (>1 m²)

Expand to show TLE details & history
Last TLE update: 2 days ago

TLE from 2 days ago
0 CZ-2D R/B
1 54641U 22165B   26171.34352306  .00000346  00000-0  67677-4 0  9999
2 54641  98.1574 114.1786 0032733 181.1613 178.9522 14.68757084189072
Epoch: 2026-06-20T08:14Z
TLE epoch observation values (Epoch: 2026-06-20T08:14:40.392Z)
Latitude
0.00004°
Longitude
81.95079°
Altitude
691.093 km
Speed
7.498 km/s
True Right ascension
07h 36m 42s
True Declination
0° 00' 00"
Sunlit
Object was in daylight at epoch
Visualization orbit readout
Latitude
Unknown
Longitude
Unknown
Altitude
Unknown
Speed
Unknown
Apparent Right ascension
Unknown
Apparent Declination
Unknown
Sunlit
N/A
Visualization observer readout
Local Sidereal Time
21:25:47
Azimuth
Unknown
Elevation
Unknown
Doppler factor
Unknown
Orbital elements
Apogee altitude
685.151 km
Perigee altitude
639.061 km
Semi-major axis
7,040.243 km
Eccentricity
0.00327
Inclination
98.1574°
RAAN
114.1786°
Arg. of periapsis
181.1613°
True anomaly
178.95903°
Mean anomaly
178.9522°
Eccentric anomaly
178.95562°
Mean motion
3.67419 °/min
Orbital period
97.98 mins
BSTAR
0.000067677
Loading maneuver chart data...
Computing Atmospheric mass density...
Loading historical data...
Loading historical data...
Loading historical data...
Loading historical data...
Loading historical data...
Loading historical data...
Loading historical data...
Other satellites on launch #165 in the year 2022 (2022-12-08 UTC)

Documentation

Showing up to 5 results
|